Weather History for Louisville Bowman, KY

Change the Weather History Date:

Friday, April 25, 2014

  Actual Average Record
Temperature  
Mean Temperature 64 °F 60 °F  
Max Temperature 73 °F 70 °F 88 °F (1989)
Min Temperature 55 °F 50 °F 34 °F (2013)
Degree Days  
Heating Degree Days 1 6  
Month to date heating degree days 152 242  
Since 1 July heating degree days 4638 4165  
Cooling Degree Days 0 1  
Month to date cooling degree days 23 25  
Year to date cooling degree days 23 29  
Growing Degree Days 16 (Base 50)    
Moisture  
Dew Point 50 °F    
Average Humidity 56    
Maximum Humidity 84    
Minimum Humidity 27    
Precipitation  
Precipitation 0.10 in 0.16 in 1.54 in (1975)
Month to date precipitation 4.85 3.24  
Year to date precipitation 12.80 13.96  
Sea Level Pressure  
Sea Level Pressure 29.77 in    
Wind  
Wind Speed 9 mph (West)    
Max Wind Speed 24 mph    
Max Gust Speed 30 mph    
Visibility 10 miles    
Events Rain    
T = Trace of Precipitation, MM = Missing Value Source: NWS Daily Summary

Daily Weather History Graph

Daily Weather History Graph

Search for Another Location

Airport:

Trip Planner

Search our weather history database for the weather conditions in past years. The results will help you decide how hot, cold, wet, or windy it might be!

Date:

Astronomy

Apr. 25, 2014 Rise Set
Actual Time 6:53 AM EDT 8:28 PM EDT
Civil Twilight 6:25 AM EDT 8:56 PM EDT
Nautical Twilight 5:51 AM EDT 9:30 PM EDT
Astronomical Twilight 5:16 AM EDT 10:05 PM EDT
Moon 4:37 AM EDT (4/25) 4:53 PM EDT (4/25)
Length of Visible Light 14h 30m
Length of Day
13h 34m
Waning Crescent, 15% of the Moon is Illuminated
Apr 25
Waning Crescent
Apr 29
New
May 6
First Quarter
May 14
Full
May 21
Last Quarter

Hourly Weather History & Observations

Time (EDT) Temp. Dew Point Humidity Pressure Visibility Wind Dir Wind Speed Gust Speed Precip Events Conditions
12:53 AM 66.0 °F 44.1 °F 45% 29.72 in 10.0 mi Variable 6.9 mph - 0.00 in   Overcast
1:53 AM 64.9 °F 48.0 °F 54% 29.69 in 10.0 mi Calm Calm - 0.00 in Rain Light Rain
2:53 AM 64.0 °F 51.1 °F 63% 29.68 in 9.0 mi South 8.1 mph - 0.01 in Rain Light Rain
3:53 AM 62.1 °F 55.9 °F 80% 29.64 in 10.0 mi SE 4.6 mph - 0.04 in   Mostly Cloudy
4:53 AM 62.1 °F 57.0 °F 84% 29.62 in 10.0 mi Calm Calm - 0.02 in   Overcast
5:12 AM 62.1 °F 57.0 °F 84% 29.63 in 10.0 mi Variable 3.5 mph - N/A   Overcast
5:53 AM 63.0 °F 57.0 °F 81% 29.62 in 10.0 mi SW 3.5 mph - N/A   Mostly Cloudy
6:53 AM 63.0 °F 57.9 °F 84% 29.63 in 10.0 mi South 5.8 mph - 0.00 in Rain Light Rain
7:11 AM 63.0 °F 57.9 °F 84% 29.64 in 9.0 mi SSW 4.6 mph - 0.00 in   Mostly Cloudy
7:53 AM 64.0 °F 57.9 °F 80% 29.63 in 10.0 mi West 10.4 mph - 0.00 in   Mostly Cloudy
8:53 AM 64.0 °F 57.0 °F 78% 29.68 in 10.0 mi WSW 10.4 mph - N/A   Overcast
9:53 AM 63.0 °F 55.9 °F 78% 29.71 in 10.0 mi West 12.7 mph - 0.01 in   Overcast
10:43 AM 62.1 °F 57.0 °F 84% 29.75 in 10.0 mi West 9.2 mph - 0.01 in Rain Light Rain
10:53 AM 62.1 °F 57.0 °F 84% 29.74 in 7.0 mi West 9.2 mph - 0.01 in Rain Light Rain
11:20 AM 63.0 °F 57.9 °F 84% 29.75 in 6.0 mi WSW 6.9 mph - 0.01 in Rain Light Rain
11:53 AM 66.0 °F 57.9 °F 75% 29.77 in 10.0 mi WNW 12.7 mph - 0.01 in   Mostly Cloudy
12:53 PM 63.0 °F 54.0 °F 72% 29.81 in 9.0 mi WNW 18.4 mph 23.0 mph N/A   Overcast
1:53 PM 64.0 °F 52.0 °F 65% 29.84 in 10.0 mi WNW 12.7 mph - N/A   Overcast
2:18 PM 66.9 °F 51.1 °F 57% 29.86 in 10.0 mi WNW 18.4 mph 26.5 mph N/A   Mostly Cloudy
2:53 PM 70.0 °F 46.0 °F 42% 29.85 in 10.0 mi WNW 20.7 mph 29.9 mph N/A   Clear
3:53 PM 72.0 °F 39.9 °F 31% 29.86 in 10.0 mi NW 17.3 mph 23.0 mph N/A   Clear
4:53 PM 72.0 °F 41.0 °F 33% 29.87 in 10.0 mi West 16.1 mph 20.7 mph N/A   Clear
5:53 PM 72.0 °F 39.0 °F 30% 29.88 in 10.0 mi WNW 15.0 mph - N/A   Clear
6:53 PM 72.0 °F 35.1 °F 26% 29.89 in 10.0 mi NW 15.0 mph 20.7 mph N/A   Clear
7:53 PM 70.0 °F 37.9 °F 31% 29.90 in 10.0 mi WNW 8.1 mph - N/A   Clear
8:53 PM 64.0 °F 39.9 °F 41% 29.91 in 10.0 mi West 4.6 mph - N/A   Clear
9:53 PM 64.0 °F 39.9 °F 41% 29.93 in 10.0 mi WSW 3.5 mph - N/A   Clear
10:53 PM 60.1 °F 41.0 °F 49% 29.95 in 10.0 mi Calm Calm - N/A   Clear
11:53 PM 55.9 °F 43.0 °F 62% 29.95 in 10.0 mi South 3.5 mph - N/A   Clear